TimeCDT,TemperatureF,Dew PointF,Humidity,Sea Level PressureIn,VisibilityMPH,Wind Direction,Wind SpeedMPH,Gust SpeedMPH,PrecipitationIn,Events,Conditions,WindDirDegrees,DateUTC
12:53 AM,79.0,55.9,45,29.94,10.0,East,8.1,-,N/A,,Clear,90,2013-09-15 05:53:00
1:53 AM,79.0,55.0,44,29.94,10.0,ESE,6.9,-,N/A,,Clear,110,2013-09-15 06:53:00
2:53 AM,78.1,55.0,45,29.95,10.0,ESE,5.8,-,N/A,,Clear,120,2013-09-15 07:53:00
3:53 AM,75.9,54.0,46,29.95,10.0,East,5.8,-,N/A,,Clear,90,2013-09-15 08:53:00
4:53 AM,75.0,54.0,48,29.95,10.0,East,5.8,-,N/A,,Clear,100,2013-09-15 09:53:00
5:53 AM,73.9,54.0,50,29.97,10.0,East,5.8,-,N/A,,Clear,100,2013-09-15 10:53:00
6:53 AM,73.9,54.0,50,29.98,10.0,ESE,4.6,-,N/A,,Scattered Clouds,120,2013-09-15 11:53:00
7:53 AM,75.0,54.0,48,30.00,10.0,East,5.8,-,N/A,,Clear,100,2013-09-15 12:53:00
8:53 AM,78.1,57.0,48,30.01,10.0,SE,5.8,-,N/A,,Clear,130,2013-09-15 13:53:00
9:53 AM,82.9,62.1,49,30.03,10.0,South,9.2,-,N/A,,Clear,170,2013-09-15 14:53:00
10:53 AM,86.0,64.0,48,30.03,10.0,South,6.9,-,N/A,,Clear,180,2013-09-15 15:53:00
11:53 AM,89.1,64.0,43,30.02,10.0,SE,5.8,-,N/A,,Clear,140,2013-09-15 16:53:00
12:53 PM,91.0,64.0,41,30.01,10.0,South,9.2,-,N/A,,Partly Cloudy,170,2013-09-15 17:53:00
1:53 PM,91.9,64.0,39,29.99,10.0,West,5.8,-,N/A,,Partly Cloudy,270,2013-09-15 18:53:00
2:53 PM,93.0,62.1,36,29.97,10.0,Variable,3.5,-,N/A,,Partly Cloudy,0,2013-09-15 19:53:00
3:53 PM,96.1,61.0,31,29.95,10.0,Variable,3.5,-,N/A,,Mostly Cloudy,0,2013-09-15 20:53:00
4:53 PM,96.1,60.1,30,29.94,10.0,East,6.9,-,N/A,,Partly Cloudy,80,2013-09-15 21:53:00
5:53 PM,93.9,59.0,31,29.95,10.0,ESE,5.8,-,N/A,,Partly Cloudy,120,2013-09-15 22:53:00
6:53 PM,93.0,59.0,32,29.95,10.0,ESE,8.1,-,N/A,,Clear,120,2013-09-15 23:53:00
7:53 PM,89.1,59.0,36,29.96,10.0,ESE,4.6,-,N/A,,Clear,110,2013-09-16 00:53:00
8:53 PM,86.0,60.1,41,29.98,10.0,ESE,4.6,-,N/A,,Clear,110,2013-09-16 01:53:00
9:53 PM,86.0,59.0,40,29.99,10.0,ESE,5.8,-,N/A,,Clear,110,2013-09-16 02:53:00
10:53 PM,82.9,60.1,46,29.99,10.0,Calm,Calm,-,N/A,,Clear,0,2013-09-16 03:53:00
11:53 PM,81.0,60.1,49,30.01,10.0,NE,3.5,-,N/A,,Clear,50,2013-09-16 04:53:00